Regional Weather Roundup
Issued by NWS

Home | Current Version | Previous Version | Graphics & Text | Print | Product List | Glossary On
Versions: 1 2 3 4 5 6 7 8 9 10 11 12 13 14 15 16 17 18 19 20 21 22 23 24 25 26 27 28 29 30 31 32 33 34 35 36 37 38 39 40 41 42 43 44 45 46 47 48 49 50
043
ASUS44 KJAN 262210
RWRMS

MISSISSIPPI HOURLY WEATHER ROUNDUP
NATIONAL WEATHER SERVICE JACKSON MS
500 PM CDT THU MAR 26 2015

NOTE: "FAIR: INDICATES FEW OR NO CLOUDS BELOW 12,000 FEET WITH NO
SIGNIFICANT WEATHER AND/OR OBSTRUCTIONS TO VISIBILITY.

MSZ001>002-007>008-010>013-018>021-025>028-034>036-262300-
NORTHWEST MISSISSIPPI

CITY           SKY/WX    TMP DP  RH WIND       PRES   REMARKS
CLARKSDALE       N/A     48  46  93 N18G28    29.99S
CLEVELAND      CLOUDY    51  48  90 N17G32    29.95S
GREENWOOD      CLOUDY    53  44  71 N16G28    29.92R
GREENVILLE     CLOUDY    52  46  80 N23G31    29.94R
OLIVE BRANCH   CLOUDY    45  45 100 N12G22    29.97F
OXFORD         CLOUDY    46  45  93 N12G20    29.97S FOG
TUNICA         MOCLDY    46  43  87 N18       30.01R
$$

MSZ003>006-009-014>017-022>024-029>033-037>039-262300-
NORTHEAST MISSISSIPPI

CITY           SKY/WX    TMP DP  RH WIND       PRES   REMARKS
COLUMBUS AFB   LGT RAIN  64  56  75 NW21G28   29.82R
CORINTH        HVY RAIN  48  45  87 N10G17    29.94R
GOLDN TRIANGLE CLOUDY    70  55  60 NW7       29.80S
STARKVILLE     RAIN      66  55  68 N10G18    29.84R
TUPELO         CLOUDY    54  45  71 NE23G32   29.90R
$$

MSZ040-058-262300-
CENTRAL MISSISSIPPI

CITY           SKY/WX    TMP DP  RH WIND       PRES   REMARKS
JACKSON INTL   LGT RAIN  66  62  87 N17G29    29.83R FOG
JACKSON HAWKNS HVY RAIN  60  57  89 NW17G26   29.85R FOG
MERIDIAN KEY   CLOUDY    73  59  61 W9        29.78F
MERIDIAN NAS   CLOUDY    74  58  57 W12       29.78F
RAYMOND        DRIZZLE   59  54  82 MISG      29.85R
VICKSBURG      LGT RAIN  56  51  84 N20       29.91R
$$

MSZ059>079-262300-
SOUTH MISSISSIPPI

CITY           SKY/WX    TMP DP  RH WIND       PRES   REMARKS
BROOKHAVEN       N/A     66  66 100 NW5       29.84S
HATTIESBURG    TSTM      69  62  78 MISG      29.84R VSB 3/4
MCCOMB         TSTM      66  65  96 CALM      29.82R FOG
NATCHEZ        CLOUDY    68  63  83 N10       29.84F
PINE BELT      CLOUDY    70  61  73 SW7       29.82F
$$

MSZ080>082-262300-
COASTAL MISSISSIPPI

CITY           SKY/WX    TMP DP  RH WIND       PRES   REMARKS
BAY ST LOUIS   CLOUDY    66  61  82 W6        29.85F
BILOXI         CLOUDY    67  64  91 W7        29.83S
PASCAGOULA     CLOUDY    67  66  97 VRB5      29.81F
GULFPORT       CLOUDY    67  62  84 SW7       29.83S
$$



USA.gov is the U.S. government's official web portal to all federal, state and local government web resources and services.